TimeCST,TemperatureF,Dew PointF,Humidity,Sea Level PressureIn,VisibilityMPH,Wind Direction,Wind SpeedMPH,Gust SpeedMPH,PrecipitationIn,Events,Conditions,WindDirDegrees,DateUTC
12:11 AM,46.4,44.6,93,30.07,2.5,Calm,Calm,-,N/A,,Scattered Clouds,0,2013-02-06 06:11:00
12:13 AM,46.4,44.6,93,30.07,1.2,Calm,Calm,-,N/A,,Mostly Cloudy,0,2013-02-06 06:13:00
12:23 AM,44.6,42.8,93,30.07,4.0,Calm,Calm,-,N/A,,Mostly Cloudy,0,2013-02-06 06:23:00
12:53 AM,42.8,41.0,93,30.06,8.0,Calm,Calm,-,N/A,,Overcast,0,2013-02-06 06:53:00
1:00 AM,44.6,42.8,93,30.06,1.0,Calm,Calm,-,N/A,,Mist,0,2013-02-06 07:00:00
1:09 AM,42.8,41.0,93,30.06,4.0,Calm,Calm,-,N/A,,Overcast,0,2013-02-06 07:09:00
1:18 AM,42.8,41.0,93,30.06,1.2,Calm,Calm,-,N/A,,Overcast,0,2013-02-06 07:18:00
1:22 AM,42.8,41.0,93,30.06,0.5,Calm,Calm,-,N/A,Fog,Fog,0,2013-02-06 07:22:00
1:29 AM,42.8,41.0,93,30.06,0.2,Calm,Calm,-,N/A,Fog,Fog,0,2013-02-06 07:29:00
1:53 AM,42.1,42.1,100,30.06,0.5,Calm,Calm,-,N/A,Fog,Fog,0,2013-02-06 07:53:00
2:01 AM,42.8,41.0,93,30.07,0.2,Calm,Calm,-,N/A,Fog,Fog,0,2013-02-06 08:01:00
2:53 AM,43.0,43.0,100,30.06,0.2,Calm,Calm,-,N/A,Fog,Fog,0,2013-02-06 08:53:00
3:53 AM,45.0,45.0,100,30.06,0.2,Calm,Calm,-,N/A,Fog,Fog,0,2013-02-06 09:53:00
4:53 AM,45.0,45.0,100,30.10,0.2,Calm,Calm,-,N/A,Fog,Fog,0,2013-02-06 10:53:00
5:53 AM,45.0,44.1,97,30.11,0.2,ENE,3.5,-,N/A,Fog,Fog,70,2013-02-06 11:53:00
6:23 AM,44.6,44.6,100,30.12,0.2,NE,3.5,-,N/A,Fog,Fog,40,2013-02-06 12:23:00
6:53 AM,46.4,44.6,93,30.09,0.2,NE,9.2,-,N/A,Fog,Fog,50,2013-02-06 12:53:00
7:53 AM,48.9,48.0,97,30.11,0.2,East,4.6,-,N/A,Fog,Fog,80,2013-02-06 13:53:00
8:48 AM,51.8,51.8,100,30.14,0.8,East,4.6,-,N/A,,Overcast,90,2013-02-06 14:48:00
8:53 AM,51.1,50.0,96,30.14,0.8,East,4.6,-,N/A,,Overcast,80,2013-02-06 14:53:00
9:01 AM,51.8,50.0,94,30.15,1.2,East,4.6,-,N/A,,Overcast,90,2013-02-06 15:01:00
9:16 AM,51.8,50.0,94,30.16,2.0,East,5.8,-,N/A,,Overcast,100,2013-02-06 15:16:00
9:51 AM,51.8,51.8,100,30.15,3.0,East,6.9,-,N/A,,Overcast,80,2013-02-06 15:51:00
9:53 AM,52.0,51.1,97,30.15,4.0,East,6.9,-,N/A,,Overcast,80,2013-02-06 15:53:00
10:01 AM,51.8,51.8,100,30.15,4.0,East,4.6,-,N/A,,Overcast,80,2013-02-06 16:01:00
10:22 AM,51.8,51.8,100,30.16,4.0,East,4.6,-,N/A,,Overcast,90,2013-02-06 16:22:00
10:53 AM,54.0,52.0,93,30.15,5.0,East,4.6,-,N/A,,Overcast,90,2013-02-06 16:53:00
11:20 AM,53.6,51.8,94,30.14,7.0,East,6.9,-,N/A,,Overcast,90,2013-02-06 17:20:00
11:53 AM,54.0,51.1,90,30.13,8.0,East,5.8,-,N/A,,Overcast,100,2013-02-06 17:53:00
12:46 PM,55.4,51.8,88,30.10,7.0,East,10.4,-,N/A,,Mostly Cloudy,90,2013-02-06 18:46:00
12:53 PM,55.0,51.1,86,30.09,8.0,East,6.9,-,N/A,,Scattered Clouds,90,2013-02-06 18:53:00
1:40 PM,57.2,51.8,82,30.06,8.0,ENE,9.2,-,N/A,,Mostly Cloudy,70,2013-02-06 19:40:00
1:48 PM,57.2,51.8,82,30.06,8.0,East,8.1,-,N/A,,Mostly Cloudy,90,2013-02-06 19:48:00
1:53 PM,57.0,51.1,81,30.06,8.0,ESE,8.1,-,N/A,,Mostly Cloudy,110,2013-02-06 19:53:00
2:49 PM,57.2,51.8,82,30.04,9.0,East,6.9,-,N/A,,Overcast,80,2013-02-06 20:49:00
2:53 PM,57.0,51.1,81,30.04,9.0,ENE,5.8,-,N/A,,Overcast,70,2013-02-06 20:53:00
3:16 PM,57.2,50.0,77,30.03,10.0,ENE,6.9,-,N/A,,Scattered Clouds,70,2013-02-06 21:16:00
3:30 PM,57.2,51.8,82,30.03,10.0,NE,4.6,-,N/A,,Mostly Cloudy,50,2013-02-06 21:30:00
3:53 PM,57.0,51.1,81,30.01,10.0,NE,5.8,-,N/A,,Overcast,40,2013-02-06 21:53:00
4:53 PM,57.0,51.1,81,30.04,10.0,Calm,Calm,-,N/A,,Overcast,0,2013-02-06 22:53:00
5:53 PM,55.0,52.0,89,30.04,7.0,NNE,3.5,-,0.00,Rain,Light Rain,30,2013-02-06 23:53:00
6:53 PM,54.0,52.0,93,30.02,7.0,NE,4.6,-,0.01,,Overcast,50,2013-02-07 00:53:00
7:53 PM,54.0,52.0,93,30.01,7.0,NE,6.9,-,0.00,Rain,Light Rain,40,2013-02-07 01:53:00
8:11 PM,53.6,51.8,94,30.01,6.0,NE,5.8,-,0.00,Rain,Light Rain,50,2013-02-07 02:11:00
8:53 PM,54.0,52.0,93,30.01,5.0,ENE,5.8,-,0.00,,Overcast,60,2013-02-07 02:53:00
9:53 PM,54.0,52.0,93,30.01,6.0,NE,4.6,-,N/A,,Overcast,40,2013-02-07 03:53:00
10:00 PM,53.6,51.8,94,30.01,6.0,NE,4.6,-,N/A,,Overcast,40,2013-02-07 04:00:00
10:53 PM,54.0,52.0,93,30.00,6.0,NE,5.8,-,N/A,,Overcast,40,2013-02-07 04:53:00
11:53 PM,54.0,52.0,93,29.99,6.0,Calm,Calm,-,N/A,,Overcast,0,2013-02-07 05:53:00